Location: Peach Mountain Observatory
(42.3967°N, 83.9367°W)
Time: 15:48:50
(UTC-05:00)

S-56A Canister/Altair - Pass Details

Date: 02 February 2020
Orbit: 633 x 2499 km, 38.9° (Epoch: 22 February)

Event Time Altitude Azimuth Distance (km) Brightness Sun altitude
Rises 15:01:15 0° 192° (SSW) 5,922 13.2 23.5°
Reaches altitude 10° 15:07:23 10° 175° (S) 4,633 12.4 22.8°
Maximum altitude 15:14:05 16° 142° (SE) 3,710 11.3 22.1°
Drops below altitude 10° 15:19:43 10° 108° (ESE) 3,794 10.9 21.5°
Sets 15:23:53 0° 89° (E) 4,425 11.0 21.0°
